This demonstration page uses our WeatherBlox Daily Observations layout. Learn more.

40.92945, -100.16068

Hourly Observations for January 7, 2015

Temp ( °F °C ) Dew Point ( °F °C ) Humidity (%) Winds ( mph kmh ) Pressure ( in mb ) Visibility ( mi km ) Precip ( " mm )
12:15 am 00:15 Cloudy with Light Snow 14 -10 7 -14 73 73 N 17 28 30.92 1047 7 11.26538 N/A
12:35 am 00:35 Windy with Snow Likely 13 -10.3 7 -13.7 76 76 N 21 33 30.92 1047 5 8.0467 N/A
12:55 am 00:55 Cloudy with Light Snow 13 -10.3 7 -13.8 76 76 N 15 24 30.92 1047 10 16.0934 N/A
1:15 am 01:15 Windy with Snow Likely 13 -10.5 7 -13.9 76 76 N 23 37 30.92 1047 4 6.43736 N/A
1:35 am 01:35 Cloudy with Light Snow 13 -10.6 7 -14 76 76 N 17 28 30.95 1048 5 8.0467 N/A
1:55 am 01:55 Cloudy with Light Snow 13 -10.5 7 -13.9 76 76 N 15 24 30.92 1047 5 8.0467 N/A
2:15 am 02:15 Windy with Snow Likely 12 -10.9 6 -14.5 75 75 N 21 33 30.98 1049 4 6.43736 N/A
2:35 am 02:35 Cloudy 12 -11.2 4 -15.6 70 70 N 18 30 31.01 1050 10 16.0934 N/A
2:55 am 02:55 Cloudy 11 -11.5 4 -15.8 71 71 N 16 26 31.01 1050 10 16.0934 N/A
3:15 am 03:15 Cloudy 12 -11.3 3 -15.9 69 69 N 22 35 31.01 1050 10 16.0934 N/A
3:35 am 03:35 Cloudy 11 -11.5 3 -16 70 70 N 20 31 31.04 1051 10 16.0934 N/A
3:55 am 03:55 Cloudy 11 -11.5 3 -16 70 70 N 15 24 31.04 1051 10 16.0934 N/A
4:15 am 04:15 Mostly Cloudy with Haze 10 -12 0 -17.7 63 63 N 24 39 31.1 1053 4 6.43736 N/A
4:35 am 04:35 Mostly Cloudy 10 -12.1 0 -17.8 63 63 N 23 37 31.1 1053 10 16.0934 N/A
4:55 am 04:55 Mostly Cloudy 10 -12.2 0 -17.8 63 63 N 21 33 31.1 1053 10 16.0934 N/A
5:15 am 05:15 Mostly Cloudy 10 -12.1 0 -17.6 64 64 N 18 30 31.12 1054 10 16.0934 N/A
5:35 am 05:35 Cloudy 10 -12.2 0 -18 62 62 N 20 31 31.12 1054 10 16.0934 N/A
5:55 am 05:55 Cloudy 10 -12.2 0 -17.6 64 64 N 23 37 31.12 1054 10 16.0934 0 0
6:15 am 06:15 Cloudy 10 -12.3 1 -17.4 66 66 N 20 31 31.12 1054 10 16.0934 N/A
6:35 am 06:35 Cloudy 10 -12.5 1 -17.1 69 69 N 18 30 31.12 1054 10 16.0934 N/A
6:55 am 06:55 Cloudy 10 -12.3 2 -16.7 70 70 N 17 28 31.15 1055 10 16.0934 N/A
7:15 am 07:15 Cloudy 10 -12.5 0 -18 64 64 N 18 30 31.15 1055 10 16.0934 N/A
7:35 am 07:35 Partly Cloudy 9 -12.7 -1 -18.1 64 64 N 22 35 31.18 1056 10 16.0934 N/A
7:55 am 07:55 Mostly Cloudy 9 -12.7 -1 -18.4 63 63 N 15 24 31.18 1056 10 16.0934 N/A
8:15 am 08:15 Mostly Cloudy 9 -12.8 -2 -19 60 60 N 22 35 31.18 1056 10 16.0934 N/A
8:35 am 08:35 Mostly Cloudy 9 -13 -3 -19.3 60 60 N 17 28 31.21 1057 10 16.0934 N/A
8:55 am 08:55 Cloudy 9 -12.9 -3 -19.2 60 60 N 18 30 31.21 1057 10 16.0934 N/A
9:15 am 09:15 Cloudy 9 -13 -3 -19.2 60 60 N 16 26 31.24 1058 10 16.0934 N/A
9:35 am 09:35 Mostly Cloudy 7 -13.8 -5 -20.5 57 57 N 16 26 N/A 10 16.0934 N/A
9:55 am 09:55 Sunny 8 -13.5 -6 -20.9 54 54 N 18 30 N/A 10 16.0934 N/A
10:15 am 10:15 Sunny 8 -13.5 -5 -20.4 56 56 N 15 24 N/A 10 16.0934 N/A
10:55 am 10:55 Sunny 8 -13.4 -5 -20.6 55 55 N 15 24 N/A 10 16.0934 N/A
11:15 am 11:15 Sunny 8 -13.5 -6 -21.2 53 53 N 17 28 N/A 10 16.0934 N/A
11:35 am 11:35 Sunny 8 -13.3 -6 -21.2 52 52 N 15 24 N/A 10 16.0934 N/A
11:55 am 11:55 Sunny 8 -13.2 -7 -21.5 50 50 NNW 13 20 31.24 1058 10 16.0934 N/A
12:15 pm 12:15 Sunny 9 -13 -6 -20.9 52 52 NNW 14 22 31.21 1057 10 16.0934 N/A
12:35 pm 12:35 Sunny 9 -12.8 -6 -21.3 49 49 NNW 12 19 31.21 1057 10 16.0934 N/A
12:55 pm 12:55 Sunny 10 -12.5 -6 -20.9 50 50 NNW 12 19 31.18 1056 10 16.0934 N/A
1:15 pm 13:15 Sunny 10 -12.5 -5 -20.7 51 51 NW 12 19 31.18 1056 10 16.0934 N/A
1:35 pm 13:35 Sunny 10 -12.3 -5 -20.8 49 49 NNW 9 15 31.18 1056 10 16.0934 N/A
1:55 pm 13:55 Sunny 10 -12.1 -4 -20.1 52 52 NW 10 17 31.15 1055 10 16.0934 N/A
2:15 pm 14:15 Sunny 10 -12 -5 -20.4 50 50 NW 9 15 31.15 1055 10 16.0934 N/A
2:35 pm 14:35 Sunny 11 -11.8 -5 -20.4 49 49 NW 8 13 31.12 1054 10 16.0934 N/A
2:55 pm 14:55 Sunny 11 -11.7 -5 -20.6 48 48 NNW 8 13 31.12 1054 10 16.0934 N/A
3:15 pm 15:15 Sunny 11 -11.6 -6 -21 46 46 NW 5 7 31.12 1054 10 16.0934 N/A
3:35 pm 15:35 Sunny 11 -11.5 -5 -20.6 47 47 WNW 5 7 31.1 1053 10 16.0934 N/A
3:55 pm 15:55 Sunny 11 -11.5 -5 -20.4 48 48 W 5 7 31.1 1053 10 16.0934 N/A
4:15 pm 16:15 Sunny 11 -11.5 -5 -20.5 48 48 Calm 31.07 1052 10 16.0934 N/A
4:35 pm 16:35 Sunny 11 -11.5 -5 -20.7 47 47 Calm 31.07 1052 10 16.0934 N/A
4:55 pm 16:55 Sunny 11 -11.7 -5 -20.6 48 48 Calm 31.04 1051 10 16.0934 N/A
5:15 pm 17:15 Sunny 10 -12.2 -5 -20.7 50 50 Calm 31.04 1051 10 16.0934 N/A
5:35 pm 17:35 Clear 10 -12.5 -5 -20.7 51 51 SSE 3 6 31.01 1050 10 16.0934 N/A
5:55 pm 17:55 Clear 8 -13.5 -5 -20.6 55 55 SSE 5 7 31.01 1050 10 16.0934 N/A
6:15 pm 18:15 Clear 6 -14.7 -6 -21.2 58 58 SSE 6 9 31.01 1050 10 16.0934 N/A
6:35 pm 18:35 Clear 4 -15.5 -6 -21.3 61 61 S 7 11 30.98 1049 10 16.0934 N/A
6:55 pm 18:55 Clear 3 -15.9 -6 -21.1 65 65 SSE 7 11 31.01 1050 10 16.0934 N/A
7:15 pm 19:15 Clear 2 -16.8 -7 -21.8 65 65 S 7 11 31.01 1050 10 16.0934 N/A
7:35 pm 19:35 Clear 2 -16.8 -7 -21.8 65 65 S 7 11 31.01 1050 10 16.0934 N/A
7:55 pm 19:55 Clear 4 -15.4 -5 -20.5 65 65 S 8 13 30.95 1048 10 16.0934 N/A
8:15 pm 20:15 Clear 5 -14.8 -5 -20.5 62 62 SSW 9 15 30.92 1047 10 16.0934 N/A
8:35 pm 20:35 Clear 6 -14.4 -4 -20.1 62 62 SSW 12 19 30.92 1047 10 16.0934 N/A
8:55 pm 20:55 Clear 7 -14.1 -4 -20 61 61 S 13 20 30.89 1046 10 16.0934 N/A
9:15 pm 21:15 Clear 7 -13.8 -4 -19.9 60 60 S 14 22 30.86 1045 10 16.0934 N/A
9:35 pm 21:35 Clear 7 -13.7 -3 -19.7 61 61 SSW 14 22 30.8 1043 10 16.0934 N/A
9:55 pm 21:55 Clear 8 -13.5 -3 -19.5 61 61 S 16 26 30.77 1042 10 16.0934 N/A
10:15 pm 22:15 Clear 8 -13.5 -3 -19.5 61 61 S 16 26 30.74 1041 10 16.0934 N/A
10:35 pm 22:35 Clear 8 -13.4 -3 -19.3 61 61 S 17 28 30.74 1041 10 16.0934 N/A
10:55 pm 22:55 Clear 8 -13.1 -2 -19 62 62 S 17 28 30.68 1039 10 16.0934 N/A
11:15 pm 23:15 Clear 8 -13.1 -2 -19 62 62 S 15 24 30.68 1039 10 16.0934 N/A
11:35 pm 23:35 Clear 9 -13 -2 -18.7 63 63 SSW 16 26 30.65 1038 10 16.0934 N/A
11:55 pm 23:55 Clear 9 -13 -1 -18.5 64 64 S 14 22 30.65 1038 10 16.0934 N/A

Powered by AerisWeather